Location: Climax
(33.2048°N, 96.4497°W)
Time: 19:46:58
(UTC+00:00)

Daily predictions for brighter satellites

Satellite Brightness Start Highest point End
(mag) Time Altitude Azimuth Time Altitude Azimuth Time Altitude Azimuth
Lacrosse 5 rocket 3.3 12:01:39 10° N 12:03:53 17° NE 12:06:05 10° E
Lacrosse 4 Rocket 3.9 12:02:05 10° NNE 12:04:42 17° ENE 12:07:17 10° E
Okean 1 Rocket 3.2 12:00:51 10° N 12:05:10 76° E 12:09:26 10° S
Meteor 2-17 Rocket 4.4 12:01:05 10° SSW 12:07:03 61° W 12:13:06 10° N
Hubble Space Telescope 2.2 12:03:55 10° SW 12:07:14 29° SSE 12:10:34 10° ESE
ATLAS 3B R/B 4.0 12:03:11 14° W 12:07:40 23° NW 12:13:41 10° N
Helios 1A Rocket 2.4 12:06:00 10° S 12:09:19 60° W 12:12:38 10° NNW
Sich 1 Rocket 3.6 12:05:23 10° N 12:09:53 88° E 12:14:19 10° S
Cosmos 968 Rocket 3.6 12:04:47 10° NNW 12:09:56 58° WSW 12:15:02 10° S
CENTAUR R/B 3.5 12:02:29 10° NNW 12:11:23 85° WSW 12:20:54 10° SSE
COSMO-SKYMED 1 2.4 12:08:21 10° S 12:12:27 72° W 12:16:34 10° NNW
Cosmos 1484 Rocket 2.4 12:12:08 10° N 12:15:36 66° WNW 12:19:02 10° SSW
IRS-1D 4.4 12:15:47 10° NNW 12:19:41 24° WNW 12:23:36 10° WSW
SL-8 R/B 3.8 12:15:37 10° WSW 12:20:17 55° NW 12:24:57 10° NE
CZ-3 R/B 2.3 12:08:48 10° W 12:22:32 61° S 12:27:26 10° ESE
IGS 5A 3.3 12:23:36 10° N 12:27:33 77° WNW 12:31:30 10° SSW
OAO 1 Rocket 4.5 12:23:37 10° W 12:28:55 77° N 12:34:12 10° E
Cosmos 1741 Rocket 4.2 12:24:39 10° NNW 12:29:48 52° WSW 12:34:53 10° S
Cosmos 1302 Rocket 4.4 12:25:06 10° SW 12:29:54 38° WNW 12:34:42 10° N
Cosmos 1975 Rocket 3.4 12:26:12 10° S 12:30:26 69° E 12:34:42 10° NNE
USA 234 3.8 12:24:46 10° ESE 12:31:10 60° NE 12:37:35 10° NW
Cosmos 1992 Rocket 4.0 12:29:18 10° SSW 12:34:28 70° WNW 12:39:40 10° NNE
Tsikada Rocket 4.1 12:31:10 10° SSW 12:37:26 72° W 12:43:50 10° N
